�N����,����,�~����,�C��,���x,�C��,����,���ϕ���,�ő�u�ԕ���,�ő厞����,���˗�,�I�_���x,�n�����x,�ő啗���N��,DTYPE
"19/06/11","00:10",0.0,17.7,90.6,999.3,300.6,1.0,1.4,326.3,0.00,16.2,20.4,"00:09:20",1
"19/06/11","00:20",0.0,17.8,90.8,999.1,300.2,1.1,1.8,338.8,0.00,16.3,20.3,"00:10:32",1
"19/06/11","00:30",0.0,17.8,91.0,999.6,296.0,1.1,2.2,305.6,0.00,16.4,20.2,"00:29:36",1
"19/06/11","00:40",0.0,18.2,90.7,999.3,311.7,2.0,4.1,337.2,0.00,16.7,20.2,"00:39:36",1
"19/06/11","00:50",0.0,18.4,90.1,999.1,328.7,2.1,3.6,338.7,0.00,16.8,20.3,"00:43:28",1
"19/06/11","01:00",0.0,18.5,89.8,999.3,329.0,1.5,3.2,337.6,0.00,16.8,20.3,"00:50:48",1
"19/06/11","01:10",0.0,18.4,89.7,999.3,326.7,1.6,2.6,339.1,0.00,16.7,20.2,"01:09:20",1
"19/06/11","01:20",0.0,18.5,89.3,999.6,322.8,2.0,2.7,337.7,0.00,16.7,20.3,"01:16:24",1
"19/06/11","01:30",0.0,18.6,88.5,999.6,317.8,2.0,2.9,322.5,0.00,16.7,20.1,"01:27:28",1
"19/06/11","01:40",0.0,18.6,87.9,999.6,322.9,2.1,3.2,324.1,0.00,16.6,20.1,"01:34:48",1
"19/06/11","01:50",0.0,18.5,87.5,999.8,314.5,1.8,3.4,342.8,0.00,16.4,20.2,"01:42:08",1
"19/06/11","02:00",0.0,18.4,87.5,999.8,306.3,1.6,2.7,329.9,0.00,16.3,20.2,"01:50:24",1
"19/06/11","02:10",0.0,18.2,87.3,999.6,297.4,1.1,2.4,303.7,0.00,16.1,20.2,"02:00:56",1
"19/06/11","02:20",0.0,18.0,87.9,999.6,286.6,1.1,1.6,270.4,0.00,16.0,20.1,"02:19:36",1
"19/06/11","02:30",0.0,17.7,88.3,999.6,275.3,1.0,1.4,275.6,0.00,15.8,20.2,"02:23:44",1
"19/06/11","02:40",0.0,17.6,88.7,999.6,278.0,0.8,1.1,256.4,0.00,15.8,20.0,"02:35:36",1
"19/06/11","02:50",0.0,17.4,89.1,999.3,309.1,1.2,2.5,321.8,0.00,15.6,20.0,"02:40:02",1
"19/06/11","03:00",0.0,17.4,89.5,999.6,314.9,1.6,2.7,318.7,0.00,15.7,19.9,"02:55:52",1
"19/06/11","03:10",0.0,17.2,89.8,999.6,278.7,1.1,2.4,312.1,0.00,15.6,20.0,"03:01:36",1
"19/06/11","03:20",0.0,17.2,90.1,999.3,259.5,1.2,2.0,274.7,0.00,15.6,20.0,"03:19:52",1
"19/06/11","03:30",0.0,17.0,90.4,999.6,311.3,1.5,2.7,326.1,0.00,15.5,19.8,"03:29:52",1
"19/06/11","03:40",0.0,17.0,90.7,999.6,326.0,1.8,2.7,329.3,0.00,15.5,19.7,"03:38:32",1
"19/06/11","03:50",0.0,17.1,90.8,1000.0,321.9,2.1,3.4,316.4,0.00,15.6,19.8,"03:43:52",1
"19/06/11","04:00",0.0,17.2,90.7,999.8,330.4,1.8,3.3,333.4,0.00,15.7,19.7,"03:53:52",1
"19/06/11","04:10",0.0,17.1,90.7,999.6,312.3,1.8,3.2,312.7,0.00,15.6,19.6,"04:00:48",1
"19/06/11","04:20",0.0,17.1,90.8,999.8,300.8,1.2,1.9,313.9,0.00,15.6,19.5,"04:12:32",1
"19/06/11","04:30",0.0,17.0,90.9,1000.0,290.5,1.0,2.0,320.5,0.00,15.5,19.8,"04:26:40",1
"19/06/11","04:40",0.0,17.1,90.9,1000.3,308.3,1.3,2.4,313.7,0.00,15.6,19.6,"04:36:56",1
"19/06/11","04:50",0.0,17.1,90.7,1000.3,318.9,1.3,2.2,312.9,0.00,15.6,19.4,"04:40:08",1
"19/06/11","05:00",0.0,17.2,90.6,1000.0,331.5,1.2,2.2,321.8,0.00,15.7,19.6,"04:56:08",1
"19/06/11","05:10",0.0,17.3,90.6,1000.0,318.0,1.6,2.1,332.0,0.00,15.8,19.7,"05:04:48",1
"19/06/11","05:20",0.0,17.3,90.6,1000.3,303.9,1.2,2.1,317.4,0.00,15.8,19.5,"05:19:28",1
"19/06/11","05:30",0.0,17.4,90.6,1000.5,315.6,1.6,2.2,319.6,0.00,15.9,19.6,"05:23:44",1
"19/06/11","05:40",0.0,17.4,90.5,1000.5,316.2,2.0,3.2,335.3,0.00,15.9,19.3,"05:32:08",1
"19/06/11","05:50",0.0,17.4,90.3,1000.8,309.0,1.8,2.9,317.0,0.00,15.8,19.5,"05:49:14",1
"19/06/11","06:00",0.0,17.4,90.3,1000.8,325.7,2.3,3.7,337.1,0.00,15.8,19.7,"05:58:56",1
"19/06/11","06:10",0.0,17.6,90.2,1000.5,327.0,2.3,3.7,326.3,0.02,16.0,19.4,"06:06:48",1
"19/06/11","06:20",0.0,18.0,90.2,1000.8,292.7,1.2,2.2,315.3,0.04,16.4,19.5,"06:10:08",1
"19/06/11","06:30",0.0,18.3,89.1,1000.8,308.4,1.5,2.9,347.3,0.04,16.5,19.5,"06:28:56",1
"19/06/11","06:40",0.0,18.4,88.6,1000.5,329.3,1.8,2.5,331.1,0.04,16.5,19.4,"06:33:36",1
"19/06/11","06:50",0.0,18.6,87.9,1000.5,340.2,1.5,2.4,334.0,0.05,16.6,19.5,"06:48:40",1
"19/06/11","07:00",0.0,18.8,87.3,1000.8,328.8,1.8,2.8,325.3,0.05,16.7,19.7,"06:52:48",1
"19/06/11","07:10",0.0,19.1,86.3,1000.8,334.3,1.7,3.1,338.8,0.05,16.8,19.7,"07:05:52",1
"19/06/11","07:20",0.0,19.1,85.4,1001.0,326.3,1.8,3.7,326.8,0.03,16.6,19.8,"07:10:24",1
"19/06/11","07:30",0.0,19.2,85.2,1000.5,321.5,1.5,2.7,333.3,0.05,16.7,19.9,"07:29:04",1
"19/06/11","07:40",0.0,19.4,84.6,1000.5,326.9,1.6,3.3,322.4,0.07,16.8,19.8,"07:32:24",1
"19/06/11","07:50",0.0,19.5,85.0,1000.8,329.9,1.3,2.2,334.1,0.08,17.0,20.0,"07:43:20",1
"19/06/11","08:00",0.0,19.8,83.8,1000.8,334.5,1.7,2.8,337.6,0.13,17.0,19.9,"07:52:24",1
"19/06/11","08:10",0.0,20.3,81.5,1000.8,324.5,1.3,2.5,339.3,0.14,17.1,19.9,"08:04:40",1
"19/06/11","08:20",0.0,20.3,80.2,1000.5,332.3,1.6,2.5,331.9,0.11,16.8,20.1,"08:18:40",1
"19/06/11","08:30",0.0,20.4,79.4,1000.3,295.2,0.8,2.0,336.7,0.10,16.8,20.2,"08:20:40",1
"19/06/11","08:40",0.0,21.4,75.8,1000.5,281.1,0.6,1.4,229.5,0.27,17.0,20.4,"08:32:32",1
"19/06/11","08:50",0.0,22.3,74.5,999.8,168.3,0.5,1.6,111.0,0.38,17.6,20.6,"08:43:36",1
"19/06/11","09:00",0.0,21.6,74.6,1000.0,212.1,0.6,1.8,186.8,0.21,16.9,20.5,"08:56:24",1
"19/06/11","09:10",0.0,21.6,76.6,1000.3,176.3,0.8,1.8,133.1,0.16,17.4,20.7,"09:03:04",1
"19/06/11","09:20",0.0,21.9,75.7,1000.0,194.5,1.3,2.4,195.9,0.19,17.5,20.5,"09:11:12",1
"19/06/11","09:30",0.0,22.1,74.1,999.8,203.3,1.0,2.7,199.0,0.25,17.3,20.7,"09:26:40",1
"19/06/11","09:40",0.0,22.0,73.3,1000.0,186.3,0.7,1.8,233.5,0.19,17.0,21.1,"09:35:28",1
"19/06/11","09:50",0.0,21.8,72.9,999.8,214.6,1.1,3.6,210.4,0.16,16.8,20.9,"09:47:04",1
"19/06/11","10:00",0.0,22.1,71.7,999.8,251.3,0.3,0.8,208.1,0.14,16.8,21.1,"09:52:08",1
"19/06/11","10:10",0.0,21.7,72.1,999.6,225.0,0.3,1.2,235.6,0.10,16.5,21.1,"10:00:32",1
"19/06/11","10:20",0.0,22.0,72.3,999.6,227.3,0.2,1.0,348.2,0.12,16.8,21.1,"10:14:40",1
"19/06/11","10:30",0.0,22.3,71.3,999.6,328.6,1.0,2.5,345.7,0.15,16.9,21.4,"10:26:56",1
"19/06/11","10:40",0.0,23.3,69.8,999.3,303.0,0.8,1.9,260.0,0.38,17.5,21.3,"10:37:44",1
"19/06/11","10:50",0.0,23.3,68.7,999.1,306.6,1.0,2.1,345.9,0.48,17.3,21.5,"10:42:56",1
"19/06/11","11:00",0.0,23.6,70.6,999.1,317.8,0.8,2.2,357.1,0.38,18.0,21.8,"10:56:08",1
"19/06/11","11:10",0.0,23.2,68.8,999.1,304.8,0.8,2.2,344.2,0.28,17.2,21.6,"11:04:32",1
"19/06/11","11:20",0.0,23.1,69.0,999.1,330.8,1.6,3.3,341.2,0.20,17.1,21.9,"11:14:32",1
"19/06/11","11:30",0.0,22.7,71.6,999.1,300.9,1.3,3.5,355.0,0.13,17.3,22.2,"11:24:56",1
"19/06/11","11:40",0.0,23.0,70.2,998.9,285.6,1.2,2.9,335.4,0.15,17.3,22.1,"11:36:16",1
"19/06/11","11:50",0.0,23.3,71.2,999.1,309.3,1.3,3.3,317.6,0.20,17.8,22.2,"11:46:56",1
"19/06/11","12:00",0.0,23.4,69.8,998.6,300.5,1.2,3.1,332.9,0.24,17.6,22.0,"11:52:40",1
"19/06/11","12:10",0.0,24.2,68.5,998.6,328.7,1.3,2.7,347.8,0.41,18.1,22.2,"12:08:56",1
"19/06/11","12:20",0.0,25.0,67.9,998.4,326.5,1.1,2.5,359.0,0.45,18.7,22.6,"12:16:00",1
"19/06/11","12:30",0.0,25.1,63.7,997.7,318.4,1.1,2.5,358.5,0.64,17.8,22.7,"12:28:32",1
"19/06/11","12:40",0.0,25.5,64.4,998.2,28.1,1.0,3.1,56.6,0.63,18.3,23.0,"12:38:16",1
"19/06/11","12:50",0.0,25.7,61.6,998.6,305.2,1.2,3.3,351.7,0.63,17.8,23.2,"12:42:40",1
"19/06/11","13:00",0.0,25.9,60.0,998.6,231.4,1.2,3.3,346.2,0.61,17.6,23.5,"12:58:56",1
"19/06/11","13:10",0.0,25.2,61.4,998.2,25.0,0.7,2.6,6.0,0.22,17.3,23.7,"13:01:44",1
"19/06/11","13:20",0.0,25.8,58.7,998.2,220.4,0.6,2.5,63.4,0.53,17.1,23.8,"13:12:24",1
"19/06/11","13:30",0.0,26.5,55.6,998.6,210.0,0.7,2.5,5.7,0.64,16.9,23.9,"13:29:20",1
"19/06/11","13:40",0.0,25.9,55.3,998.6,30.3,1.0,2.5,0.9,0.51,16.3,24.0,"13:39:28",1
"19/06/11","13:50",0.0,26.6,55.5,998.4,19.7,1.0,2.2,8.4,0.45,17.0,24.0,"13:46:32",1
"19/06/11","14:00",0.0,26.9,53.4,998.2,2.8,1.5,3.3,343.6,0.50,16.7,24.1,"13:53:52",1
"19/06/11","14:10",0.0,25.8,57.3,997.9,46.5,1.2,2.6,1.1,0.20,16.8,24.0,"14:06:04",1
"19/06/11","14:20",0.0,26.3,55.3,997.4,11.9,0.8,1.9,52.7,0.30,16.7,24.3,"14:13:04",1
"19/06/11","14:30",0.0,25.5,59.1,997.2,134.8,1.1,2.8,186.3,0.16,17.0,23.9,"14:28:00",1
"19/06/11","14:40",0.0,26.0,59.3,997.2,184.5,1.7,3.6,216.0,0.23,17.5,24.0,"14:35:20",1
"19/06/11","14:50",0.0,25.8,56.7,996.5,215.4,2.1,4.1,203.9,0.25,16.6,24.0,"14:42:16",1
"19/06/11","15:00",0.0,25.0,59.6,996.3,217.8,1.5,3.4,226.8,0.14,16.6,24.2,"14:59:36",1
"19/06/11","15:10",0.0,24.6,62.1,996.5,197.0,1.6,3.5,209.3,0.11,16.9,24.0,"15:03:20",1
"19/06/11","15:20",0.0,24.5,62.5,996.3,188.7,0.6,1.6,209.4,0.10,16.9,23.8,"15:13:44",1
"19/06/11","15:30",0.0,25.1,62.3,996.5,319.0,0.8,1.6,338.6,0.07,17.4,23.9,"15:28:24",1
"19/06/11","15:40",0.4,24.8,66.6,996.7,325.7,0.8,1.4,8.9,0.05,18.2,23.9,"15:30:40",1
"19/06/11","15:50",0.2,22.7,73.0,997.0,321.4,2.3,4.1,343.7,0.03,17.7,23.9,"15:44:32",1
"19/06/11","16:00",0.0,21.7,81.5,997.0,323.2,1.7,2.9,315.9,0.09,18.4,23.7,"15:50:24",1
"19/06/11","16:10",0.0,22.1,84.0,997.2,313.2,0.8,1.8,320.2,0.20,19.3,23.7,"16:00:24",1
"19/06/11","16:20",0.0,22.7,82.5,997.0,321.7,1.7,3.2,336.0,0.34,19.6,23.6,"16:14:00",1
"19/06/11","16:30",0.0,23.4,81.5,997.0,311.5,1.6,3.5,337.2,0.26,20.1,23.6,"16:20:56",1
"19/06/11","16:40",0.0,23.0,81.5,997.0,285.6,1.5,2.5,304.8,0.23,19.7,23.6,"16:36:00",1
"19/06/11","16:50",0.0,23.6,78.3,997.0,302.7,1.3,2.7,326.5,0.16,19.6,23.6,"16:49:20",1
"19/06/11","17:00",0.0,23.3,79.5,996.7,299.1,1.5,2.8,329.1,0.16,19.6,23.7,"16:51:36",1
"19/06/11","17:10",0.2,22.9,79.6,997.0,326.7,2.7,5.5,330.5,0.15,19.2,23.6,"17:03:04",1
"19/06/11","17:20",0.2,22.6,80.6,997.4,327.1,1.7,3.5,337.6,0.09,19.1,23.7,"17:14:00",1
"19/06/11","17:30",1.2,22.0,83.0,997.2,318.7,1.5,3.2,325.2,0.08,19.0,23.7,"17:25:28",1
"19/06/11","17:40",0.0,21.9,84.4,997.4,309.4,1.5,3.3,354.8,0.08,19.2,23.7,"17:36:08",1
"19/06/11","17:50",0.2,21.4,85.5,997.4,330.3,2.0,3.4,334.1,0.05,18.9,23.2,"17:40:02",1
"19/06/11","18:00",0.0,21.2,86.3,997.4,328.8,1.8,3.1,332.3,0.04,18.9,23.5,"17:57:28",1
"19/06/11","18:10",0.0,20.9,86.1,997.4,334.7,2.5,4.5,327.4,0.05,18.5,23.3,"18:09:20",1
"19/06/11","18:20",0.0,20.6,86.1,997.9,340.7,2.5,5.8,334.8,0.01,18.2,23.3,"18:14:24",1
"19/06/11","18:30",0.0,20.3,85.8,998.4,327.4,2.7,4.3,331.7,0.00,17.9,23.1,"18:24:48",1
"19/06/11","18:40",0.0,20.0,85.5,998.4,327.0,3.1,5.8,329.1,0.00,17.5,23.0,"18:34:24",1
"19/06/11","18:50",0.0,19.8,85.1,998.4,329.4,2.8,5.2,325.8,0.00,17.3,23.1,"18:48:08",1
"19/06/11","19:00",0.0,19.8,84.9,998.9,321.0,2.5,4.0,338.7,0.00,17.2,22.8,"18:51:28",1
"19/06/11","19:10",0.0,19.8,84.5,998.6,350.4,2.0,3.2,343.8,0.00,17.2,22.7,"19:00:48",1
"19/06/11","19:20",0.0,19.9,84.1,999.3,352.4,2.0,3.7,338.1,0.00,17.2,22.7,"19:18:00",1
"19/06/11","19:30",0.0,19.8,83.9,999.3,342.6,2.2,4.5,335.1,0.00,17.0,22.6,"19:25:44",1
"19/06/11","19:40",0.0,19.7,83.6,999.6,325.3,1.8,4.9,340.3,0.00,16.9,22.5,"19:35:20",1
"19/06/11","19:50",0.0,19.9,82.9,999.6,329.3,2.0,3.4,329.8,0.00,16.9,22.3,"19:41:04",1
"19/06/11","20:00",0.0,19.9,82.8,999.8,334.6,1.5,2.8,320.6,0.00,16.9,22.3,"19:50:32",1
"19/06/11","20:10",0.0,19.6,82.9,999.6,333.9,1.6,3.1,342.7,0.00,16.7,21.9,"20:02:56",1
"19/06/11","20:20",0.0,19.5,83.6,999.8,335.8,0.8,2.0,339.2,0.00,16.7,22.1,"20:10:32",1
"19/06/11","20:30",0.0,19.2,83.7,1000.0,300.2,0.8,1.3,309.2,0.00,16.4,21.9,"20:28:32",1
"19/06/11","20:40",0.0,18.9,85.7,1000.5,326.1,1.2,2.7,330.6,0.00,16.5,21.9,"20:37:28",1
"19/06/11","20:50",0.0,18.9,86.5,1000.5,358.8,0.7,2.0,11.7,0.00,16.6,21.8,"20:43:12",1
"19/06/11","21:00",0.0,19.0,87.1,1000.5,328.1,1.1,2.2,331.4,0.00,16.8,21.7,"20:58:32",1
"19/06/11","21:10",0.0,18.9,87.3,1000.8,312.2,1.8,2.8,343.5,0.00,16.8,21.5,"21:09:36",1
"19/06/11","21:20",0.0,18.8,87.6,1000.8,326.8,2.2,4.2,334.9,0.00,16.7,21.7,"21:17:52",1
"19/06/11","21:30",0.0,18.8,87.3,1000.8,332.9,2.0,4.0,346.1,0.00,16.7,21.4,"21:27:20",1
"19/06/11","21:40",0.0,18.9,86.9,1001.0,332.3,1.7,3.6,328.6,0.00,16.7,21.5,"21:30:32",1
"19/06/11","21:50",0.0,18.9,86.7,1001.0,336.5,1.6,2.9,308.9,0.00,16.7,21.5,"21:41:52",1
"19/06/11","22:00",0.0,18.9,86.2,1001.5,336.7,2.1,3.5,345.7,0.00,16.6,21.3,"21:54:40",1
"19/06/11","22:10",0.0,18.9,85.8,1001.2,333.2,1.6,3.2,350.0,0.00,16.5,21.3,"22:03:52",1
"19/06/11","22:20",0.0,18.9,85.7,1001.0,300.0,1.1,1.9,325.3,0.00,16.5,21.5,"22:17:52",1
"19/06/11","22:30",0.0,18.8,85.6,1001.2,320.9,1.3,2.4,347.6,0.00,16.4,21.2,"22:20:56",1
"19/06/11","22:40",0.0,18.9,85.6,1001.2,320.9,1.1,2.4,311.0,0.00,16.5,21.3,"22:31:12",1
"19/06/11","22:50",0.0,18.8,85.6,1001.2,285.5,1.1,2.2,328.9,0.00,16.4,21.1,"22:44:08",1
"19/06/11","23:00",0.0,18.7,85.8,1001.2,276.6,0.8,2.2,318.5,0.00,16.3,21.2,"22:52:48",1
"19/06/11","23:10",0.0,18.6,86.0,1001.2,273.2,0.8,1.4,262.6,0.00,16.3,21.3,"23:02:40",1
"19/06/11","23:20",0.0,18.4,86.4,1001.0,278.4,1.0,2.0,304.4,0.00,16.1,21.0,"23:14:56",1
"19/06/11","23:30",0.0,18.3,86.9,1000.8,270.2,0.8,1.3,266.7,0.00,16.1,21.1,"23:22:56",1
"19/06/11","23:40",0.0,18.3,87.4,1000.5,248.6,0.8,1.2,244.1,0.00,16.2,20.9,"23:32:48",1
"19/06/11","23:50",0.0,18.2,87.8,1000.8,264.7,0.7,1.0,257.4,0.00,16.2,20.9,"23:47:04",1
"19/06/11","24:00",0.0,18.0,88.2,1001.0,313.6,1.2,1.8,322.8,0.00,16.1,20.7,"23:58:08",1
